Weather History for KT65 - January, 2013

Change the Weather History Date:

Wednesday, January 16, 2013

  Actual Average (KMFE) Record (KMFE)
Temperature  
Mean Temperature 50 °F 61 °F  
Max Temperature 61 °F 71 °F 90 °F (1943)
Min Temperature 39 °F 51 °F 33 °F (1903)
Degree Days  
Heating Degree Days 15 6  
Month to date heating degree days 107  
Since 1 July heating degree days 344  
Cooling Degree Days 0 2  
Month to date cooling degree days 32  
Year to date cooling degree days 32  
Moisture  
Dew Point 26 °F    
Average Humidity 46    
Maximum Humidity 70    
Minimum Humidity 18    
Precipitation  
Precipitation 0.00 in 0.03 in 0.93 in (1988)
Month to date precipitation 0.53  
Year to date precipitation 0.53  
Sea Level Pressure  
Sea Level Pressure 30.32 in    
Wind  
Wind Speed 12 mph (NNW)    
Max Wind Speed 23 mph    
Max Gust Speed 31 mph    
Visibility 10 miles    
Events      
T = Trace of Precipitation, MM = Missing Value Source: NWS Daily Summary

Daily Weather History Graph

Daily Weather History Graph

Search for Another Location

Airport or City:

Trip Planner

Search our weather history database for the weather conditions in past years. The results will help you decide how hot, cold, wet, or windy it might be!

Date:

Astronomy

Jan. 16, 2013 Rise Set
Actual Time 7:20 AM CST 6:02 PM CST
Civil Twilight 6:56 AM CST 6:27 PM CST
Nautical Twilight 6:27 AM CST 6:56 PM CST
Astronomical Twilight 5:59 AM CST 7:23 PM CST
Moon 10:33 AM CST (1/16) 11:16 PM CST (1/16)
Length of Visible Light 11h 31m
Length of Day
10h 42m
Waxing Crescent, 28% of the Moon is Illuminated
Jan 16
Waxing Crescent
Jan 18
First Quarter
Jan 26
Full
Feb 3
Last Quarter
Feb 10
New

Hourly Weather History & Observations

Time (CST) Temp. Windchill Dew Point Humidity Pressure Visibility Wind Dir Wind Speed Gust Speed Precip Events Conditions
12:15 AM 45.0 °F 40.6 °F 35.6 °F 70% 30.26 in 10.0 mi NNW 8.1 mph - N/A   Overcast
12:35 AM 45.1 °F 39.1 °F 35.1 °F 68% 30.26 in 10.0 mi NNW 12.7 mph 18.4 mph N/A   Overcast
12:55 AM 45.0 °F 38.5 °F 35.1 °F 68% 30.26 in 10.0 mi North 13.8 mph 20.7 mph N/A   Overcast
1:15 AM 45.1 °F 39.1 °F 34.7 °F 67% 30.26 in 10.0 mi NNW 12.7 mph 17.3 mph N/A   Overcast
1:35 AM 45.1 °F 38.8 °F 34.3 °F 66% 30.27 in 10.0 mi NNW 13.8 mph 23.0 mph N/A   Overcast
1:55 AM 44.8 °F 38.3 °F 34.2 °F 66% 30.27 in 10.0 mi NNW 13.8 mph 20.7 mph N/A   Overcast
2:15 AM 44.6 °F 36.4 °F 34.3 °F 67% 30.27 in 10.0 mi NNW 20.7 mph 26.5 mph N/A   Overcast
2:35 AM 44.6 °F 36.6 °F 32.4 °F 62% 30.28 in 10.0 mi NNW 19.6 mph 24.2 mph N/A   Overcast
2:55 AM 44.1 °F 37.7 °F 32.0 °F 63% 30.29 in 10.0 mi NNW 12.7 mph 23.0 mph N/A   Overcast
3:15 AM 43.9 °F 37.2 °F 30.9 °F 60% 30.29 in 10.0 mi NNW 13.8 mph 24.2 mph N/A   Overcast
3:35 AM 43.7 °F 37.3 °F 29.8 °F 58% 30.30 in 10.0 mi NNW 12.7 mph 23.0 mph N/A   Overcast
3:55 AM 43.7 °F 37.3 °F 29.7 °F 58% 30.30 in 10.0 mi NNW 12.7 mph 23.0 mph N/A   Overcast
4:15 AM 43.7 °F 36.9 °F 29.3 °F 57% 30.30 in 10.0 mi NNW 13.8 mph 21.9 mph N/A   Overcast
4:35 AM 43.7 °F 37.7 °F 29.3 °F 57% 30.30 in 10.0 mi NNW 11.5 mph - N/A   Overcast
4:55 AM 43.7 °F 36.6 °F 28.8 °F 56% 30.31 in 10.0 mi NNW 15.0 mph 20.7 mph N/A   Overcast
5:15 AM 43.7 °F 36.9 °F 29.1 °F 57% 30.31 in 10.0 mi NNW 13.8 mph 20.7 mph N/A   Overcast
5:35 AM 43.5 °F 37.5 °F 29.5 °F 58% 30.32 in 10.0 mi NNW 11.5 mph 18.4 mph N/A   Overcast
5:55 AM 43.3 °F 36.5 °F 28.4 °F 56% 30.33 in 10.0 mi NNW 13.8 mph 17.3 mph N/A   Overcast
6:35 AM 42.1 °F 36.6 °F 28.0 °F 58% 30.35 in 10.0 mi NNW 9.2 mph 17.3 mph N/A   Overcast
6:55 AM 41.0 °F 34.7 °F 28.2 °F 60% 30.36 in 10.0 mi NNW 10.4 mph 16.1 mph N/A   Mostly Cloudy
7:15 AM 40.1 °F 33.2 °F 26.2 °F 58% 30.36 in 10.0 mi NNW 11.5 mph - N/A   Scattered Clouds
7:35 AM 39.9 °F 32.5 °F 26.4 °F 59% 30.36 in 10.0 mi NNW 12.7 mph - N/A   Clear
7:55 AM 40.3 °F 33.0 °F 26.1 °F 57% 30.37 in 10.0 mi NNW 12.7 mph - N/A   Clear
8:15 AM 41.0 °F 34.3 °F 26.2 °F 56% 30.38 in 10.0 mi NNW 11.5 mph - N/A   Clear
8:35 AM 42.8 °F 35.8 °F 25.7 °F 51% 30.39 in 10.0 mi NNW 13.8 mph - N/A   Clear
8:55 AM 43.3 °F 36.8 °F 25.2 °F 49% 30.39 in 10.0 mi NNW 12.7 mph 19.6 mph N/A   Scattered Clouds
9:15 AM 44.8 °F 38.7 °F 25.0 °F 46% 30.39 in 10.0 mi NNW 12.7 mph 19.6 mph N/A   Clear
9:35 AM 46.2 °F 40.5 °F 22.8 °F 40% 30.40 in 10.0 mi NNW 12.7 mph 20.7 mph N/A   Clear
9:55 AM 47.1 °F - 21.7 °F 37% 30.40 in 10.0 mi North 16.1 mph 23.0 mph N/A   Clear
10:15 AM 49.1 °F - 22.3 °F 35% 30.40 in 10.0 mi NNW 17.3 mph 21.9 mph N/A   Clear
10:35 AM 50.4 °F - 20.7 °F 31% 30.40 in 10.0 mi North 13.8 mph 21.9 mph N/A   Clear
10:55 AM 50.4 °F - 21.4 °F 32% 30.39 in 10.0 mi North 16.1 mph 21.9 mph N/A   Clear
11:15 AM 51.8 °F - 21.0 °F 30% 30.38 in 10.0 mi North 15.0 mph 21.9 mph N/A   Clear
11:35 AM 53.6 °F - 22.1 °F 29% 30.37 in 10.0 mi NNW 16.1 mph 24.2 mph N/A   Clear
11:55 AM 54.0 °F - 20.7 °F 27% 30.36 in 10.0 mi North 17.3 mph 25.3 mph N/A   Clear
12:15 PM 54.5 °F - 21.0 °F 27% 30.34 in 10.0 mi North 15.0 mph 23.0 mph N/A   Clear
12:35 PM 55.2 °F - 22.3 °F 28% 30.33 in 10.0 mi North 18.4 mph 21.9 mph N/A   Clear
12:55 PM 56.5 °F - 21.6 °F 26% 30.31 in 10.0 mi NNW 19.6 mph 26.5 mph N/A   Clear
1:15 PM 58.1 °F - 21.2 °F 24% 30.30 in 10.0 mi NNW 19.6 mph 29.9 mph N/A   Clear
1:35 PM 57.6 °F - 20.8 °F 24% 30.29 in 10.0 mi NNW 17.3 mph 25.3 mph N/A   Clear
2:15 PM 58.6 °F - 18.7 °F 21% 30.27 in 10.0 mi NW 13.8 mph 28.8 mph N/A   Clear
2:35 PM 61.0 °F - 17.4 °F 18% 30.26 in 10.0 mi NNW 21.9 mph 31.1 mph N/A   Clear
2:55 PM 60.6 °F - 18.0 °F 19% 30.26 in 10.0 mi NW 23.0 mph 26.5 mph N/A   Clear
3:15 PM 60.1 °F - 18.3 °F 20% 30.26 in 10.0 mi NW 15.0 mph 24.2 mph N/A   Clear
3:35 PM 60.6 °F - 18.5 °F 20% 30.26 in 10.0 mi NW 17.3 mph 23.0 mph N/A   Clear
3:55 PM 59.4 °F - 18.1 °F 20% 30.26 in 10.0 mi NW 19.6 mph 25.3 mph N/A   Clear
4:15 PM 60.8 °F - 17.1 °F 18% 30.26 in 10.0 mi NNW 17.3 mph 23.0 mph N/A   Clear
4:55 PM - - - N/A% - - North - - N/A   Unknown
5:15 PM 57.7 °F - 17.2 °F 21% 30.27 in 10.0 mi North 3.5 mph - N/A   Clear
5:55 PM 54.5 °F - 20.5 °F 27% 30.28 in 10.0 mi NNW 4.6 mph - N/A   Clear
6:15 PM 53.4 °F - 21.2 °F 28% 30.29 in 10.0 mi Calm Calm - N/A   Clear
6:35 PM 51.1 °F - 21.6 °F 31% 30.29 in 10.0 mi Calm Calm - N/A   Clear
6:55 PM 47.5 °F - 27.9 °F 47% 30.31 in 10.0 mi Calm Calm - N/A   Clear
7:15 PM 48.7 °F - 27.9 °F 44% 30.31 in 10.0 mi Calm Calm - N/A   Clear
7:35 PM 47.1 °F - 25.7 °F 43% 30.32 in 10.0 mi Calm Calm - N/A   Clear
7:55 PM 46.0 °F - 28.8 °F 51% 30.33 in 10.0 mi Calm Calm - N/A   Clear
8:15 PM 46.2 °F - 27.3 °F 48% 30.33 in 10.0 mi Calm Calm - N/A   Clear
8:35 PM 46.6 °F - 23.7 °F 41% 30.33 in 10.0 mi Calm Calm - N/A   Clear
8:55 PM 44.8 °F - 21.6 °F 40% 30.34 in 10.0 mi Calm Calm - N/A   Clear
9:15 PM 44.4 °F - 24.8 °F 46% 30.34 in 10.0 mi Calm Calm - N/A   Clear
9:35 PM 43.9 °F - 30.2 °F 59% 30.34 in 10.0 mi Calm Calm - N/A   Clear
9:55 PM 44.2 °F - 28.6 °F 54% 30.34 in 10.0 mi Calm Calm - N/A   Clear
10:15 PM 43.2 °F - 28.0 °F 55% 30.34 in 10.0 mi Calm Calm - N/A   Clear
10:35 PM 41.9 °F - 31.3 °F 66% 30.34 in 10.0 mi Calm Calm - N/A   Clear
10:55 PM 41.4 °F 38.4 °F 28.2 °F 60% 30.34 in 10.0 mi NNE 4.6 mph - N/A   Clear
11:15 PM 42.3 °F - 30.7 °F 64% 30.34 in 10.0 mi Calm Calm - N/A   Clear
11:35 PM 40.3 °F 38.2 °F 28.2 °F 62% 30.35 in 10.0 mi NNE 3.5 mph - N/A   Clear
11:55 PM 40.3 °F - 28.6 °F 63% 30.35 in 10.0 mi Calm Calm - N/A   Clear